GW1374 Weather Reports


Display with metric or nautical units.
time (UTC)temp
F
wind
direction
speed
MPH
gust
MPH
rain 1hr
in
rain 24hr
in
rain mn
in
humidity
%
barometer
mb
20260906231551 63 9 1.0 4.0 0.00 0.00 0.00 78 1017.5
20260906230054 64 51 1.0 5.0 0.00 0.00 0.00 76 1017.6
20260906224555 64 325 1.0 4.0 0.00 0.00 0.00 72 1017.5
20260906223053 65 0 1.0 9.0 0.00 0.00 0.00 70 1017.5
20260906221554 66 9 0.0 3.0 0.00 0.00 0.00 69 1017.4
20260906214556 65 0 0.0 3.0 0.00 0.00 0.00 67 1017.1
20260906213057 65 59 1.0 3.0 0.00 0.00 0.00 69 1017.3
20260906211551 66 22 1.0 2.0 0.00 0.00 0.00 66 1017.3
20260906210101 67 111 1.0 4.0 0.00 0.00 0.00 66 1017.3
20260906204610 67 0 1.0 3.0 0.00 0.00 0.00 64 1017.1
20260906203050 67 61 1.0 3.0 0.00 0.00 0.00 63 1017.0
20260906201603 68 34 1.0 3.0 0.00 0.00 0.00 63 1016.9
20260906200056 69 0 1.0 4.0 0.00 0.00 0.00 64 1016.9
20260906194556 68 49 1.0 5.0 0.00 0.00 0.00 65 1016.8
20260906193106 69 9 1.0 3.0 0.00 0.00 0.00 62 1016.8
20260906191558 69 68 1.0 5.0 0.00 0.00 0.00 64 1017.0
20260906190053 69 68 1.0 4.0 0.00 0.00 0.00 61 1016.8
20260906184552 70 321 1.0 4.0 0.00 0.00 0.00 65 1016.9
20260906183100 69 329 0.0 4.0 0.00 0.00 0.00 62 1016.9
20260906181600 70 126 1.0 8.0 0.00 0.00 0.00 63 1017.0
20260906180105 69 221 1.0 4.0 0.00 0.00 0.00 68 1017.0
20260906174603 69 38 1.0 4.0 0.00 0.00 0.00 65 1017.0
20260906173050 69 93 1.0 5.0 0.00 0.00 0.00 67 1017.1
20260906171553 69 59 1.0 4.0 0.00 0.00 0.00 67 1017.1
20260906170054 68 325 1.0 4.0 0.00 0.00 0.00 67 1017.2
20260906164553 67 76 1.0 4.0 0.00 0.00 0.00 69 1017.2
20260906163101 67 0 1.0 2.0 0.00 0.00 0.00 71 1017.3
20260906161557 67 59 1.0 3.0 0.00 0.00 0.00 73 1017.3
20260906160054 67 51 1.0 3.0 0.00 0.00 0.00 70 1017.4
20260906154559 67 188 1.0 3.0 0.00 0.00 0.00 75 1017.4
20260906153056 67 111 1.0 4.0 0.00 0.00 0.00 78 1017.4
20260906151553 66 108 1.0 5.0 0.00 0.00 0.00 79 1017.3
20260906144557 64 93 1.0 4.0 0.00 0.00 0.00 81 1017.3
20260906143107 63 80 1.0 5.0 0.00 0.00 0.00 85 1017.1
20260906141558 62 26 1.0 4.0 0.00 0.00 0.00 87 1017.1
20260906140101 62 178 1.0 6.0 0.00 0.00 0.00 87 1017.1
20260906134557 61 137 1.0 3.0 0.00 0.00 0.00 92 1017.1
20260906133053 60 243 1.0 2.0 0.00 0.00 0.00 93 1017.0
20260906131605 60 0 0.0 2.0 0.00 0.00 0.00 95 1017.0
20260906124600 59 205 0.0 2.0 0.00 0.00 0.00 97 1016.8
20260906123059 58 178 0.0 3.0 0.00 0.00 0.00 97 1016.6
20260906121557 58 0 1.0 3.0 0.00 0.00 0.00 97 1016.6
20260906120126 57 0 0.0 2.0 0.00 0.00 0.00 97 1016.5
20260906114602 57 34 0.0 2.0 0.00 0.00 0.00 97 1016.4
20260906113051 57 0 0.0 2.0 0.00 0.00 0.00 96 1016.1
20260906111616 57 0 0.0 1.0 0.00 0.00 0.00 96 1016.2
20260906110053 58 0 0.0 1.0 0.00 0.00 0.00 96 1016.0
20260906104553 58 51 0.0 1.0 0.00 0.00 0.00 96 1015.9
20260906103053 58 0 0.0 1.0 0.00 0.00 0.00 97 1015.7
20260906101601 58 0 0.0 2.0 0.00 0.00 0.00 97 1015.7
20260906100059 58 0 0.0 2.0 0.00 0.00 0.00 97 1015.4
20260906094554 58 0 0.0 2.0 0.00 0.00 0.00 97 1015.2
20260906093053 58 34 0.0 2.0 0.00 0.00 0.00 97 1015.0
20260906091555 57 325 0.0 2.0 0.00 0.00 0.00 97 1015.1
20260906090058 57 67 0.0 2.0 0.00 0.00 0.00 96 1014.7
20260906084556 57 0 0.0 2.0 0.00 0.00 0.00 96 1014.7
20260906083100 57 0 0.0 2.0 0.00 0.00 0.00 96 1014.4
20260906081600 57 9 0.0 2.0 0.00 0.00 0.00 96 1014.3
20260906080057 58 9 0.0 2.0 0.00 0.00 0.00 96 1014.3
20260906074554 58 26 0.0 2.0 0.00 0.00 0.00 96 1014.5
20260906073054 58 67 0.0 2.0 0.00 0.00 0.00 96 1014.4
20260906071559 58 0 0.0 2.0 0.00 0.00 0.00 96 1014.4
20260906070053 58 67 0.0 3.0 0.00 0.00 0.00 96 1014.4
20260906064551 58 0 0.0 2.0 0.00 0.00 0.00 96 1014.5
20260906063053 58 0 0.0 2.0 0.00 0.00 0.00 95 1014.6
20260906061554 58 325 0.0 2.0 0.00 0.00 0.00 95 1014.7
20260906060050 58 265 0.0 2.0 0.00 0.00 0.00 95 1014.6
20260906054616 58 265 0.0 4.0 0.00 0.00 0.00 95 1014.8
20260906053053 58 9 0.0 3.0 0.00 0.00 0.00 95 1014.9
20260906051551 58 0 1.0 4.0 0.00 0.00 0.00 95 1014.9
20260906050106 59 0 1.0 3.0 0.00 0.00 0.00 95 1014.9
20260906044555 59 51 0.0 2.0 0.00 0.00 0.00 95 1014.7
20260906043052 59 44 1.0 3.0 0.00 0.00 0.00 95 1014.9
20260906041550 59 44 1.0 4.0 0.00 0.00 0.00 95 1014.7
20260906040103 59 0 0.0 2.0 0.00 0.00 0.00 94 1014.8
20260906034555 59 51 0.0 2.0 0.00 0.00 0.00 94 1014.7
20260906033124 59 26 0.0 2.0 0.00 0.00 0.00 94 1014.6
20260906031609 59 51 0.0 2.0 0.00 0.00 0.00 93 1014.5
20260906030051 59 0 0.0 2.0 0.00 0.00 0.00 92 1014.4
20260906024601 60 0 0.0 1.0 0.00 0.00 0.00 92 1014.5
20260906023101 60 0 0.0 2.0 0.00 0.00 0.00 91 1014.5
20260906021556 60 26 0.0 3.0 0.00 0.00 0.00 91 1014.3
20260906020053 61 334 1.0 2.0 0.00 0.00 0.00 90 1014.4
20260906014553 61 0 0.0 3.0 0.00 0.00 0.00 89 1014.2
20260906013059 62 9 1.0 3.0 0.00 0.00 0.00 89 1014.1
20260906011552 62 34 1.0 2.0 0.00 0.00 0.00 88 1014.1
20260906010054 62 19 1.0 3.0 0.00 0.00 0.00 87 1014.0
20260906004557 63 0 1.0 3.0 0.00 0.00 0.00 86 1014.1
20260906003054 63 19 1.0 3.0 0.00 0.00 0.00 86 1013.7
20260906001551 63 336 1.0 3.0 0.00 0.00 0.00 86 1013.7
20260906000059 64 26 1.0 3.0 0.00 0.00 0.00 85 1013.5
20260905234602 64 9 1.0 2.0 0.00 0.00 0.00 84 1013.6
20260905233053 65 34 0.0 1.0 0.00 0.00 0.00 82 1013.7